Location: Anglesey
(53.1800°N, 4.2200°W)
Time: 17:30:43
(UTC+00:00)

Envisat - Visible Passes

Search period start: 17 November 2017 00:00
Search period end: 27 November 2017 00:00
Orbit: 764 x 766 km, 98.2° (Epoch: 17 November)

Date Brightness Start Highest point End Pass type
(mag) Time Alt. Az. Time Alt. Az. Time Alt. Az.
17 Nov 4.4 18:23:46 21° NE 18:23:46 21° NE 18:26:29 10° N visible
17 Nov 4.7 20:03:59 26° NNW 20:03:59 26° NNW 20:06:13 10° NNW visible
18 Nov 4.7 17:46:43 14° NE 17:46:43 14° NE 17:48:52 10° NNE visible
18 Nov 4.3 19:26:56 29° N 19:26:56 29° N 19:29:26 10° N visible
18 Nov 5.8 21:07:08 13° NW 21:07:08 13° NW 21:07:56 10° NW visible
19 Nov 4.3 18:49:53 25° NNE 18:49:53 25° NNE 18:52:26 10° N visible
19 Nov 5.2 20:30:06 20° NW 20:30:06 20° NW 20:31:42 10° NNW visible
20 Nov 4.5 18:12:50 18° NE 18:12:50 18° NE 18:15:10 10° N visible
20 Nov 4.7 19:53:02 25° NNW 19:53:02 25° NNW 19:55:06 10° NNW visible
21 Nov 4.8 17:35:46 12° NE 17:35:46 12° NE 17:37:14 10° NNE visible
21 Nov 4.4 19:15:59 26° N 19:15:59 26° N 19:18:16 10° N visible
21 Nov 5.7 20:56:11 14° NW 20:56:11 14° NW 20:57:00 10° NNW visible
22 Nov 6.1 07:13:17 10° ENE 07:14:44 11° E 07:16:11 10° E visible
22 Nov 4.4 18:38:55 22° NNE 18:38:55 22° NNE 18:41:12 10° N visible
22 Nov 5.2 20:19:07 19° NNW 20:19:07 19° NNW 20:20:39 10° NNW visible
23 Nov 4.7 18:01:51 16° NNE 18:01:51 16° NNE 18:03:48 10° NNE visible
23 Nov 4.7 19:42:03 23° NNW 19:42:03 23° NNW 19:43:58 10° NNW visible
24 Nov 5.0 17:24:47 10° NE 17:24:47 10° NE 17:25:04 10° NE visible
24 Nov 4.5 19:04:59 23° N 19:04:59 23° N 19:07:03 10° N visible
24 Nov 5.6 20:45:12 14° NW 20:45:12 14° NW 20:46:02 10° NNW visible
25 Nov 4.6 18:27:55 19° NNE 18:27:55 19° NNE 18:29:55 10° N visible
25 Nov 5.1 20:08:07 19° NNW 20:08:07 19° NNW 20:09:34 10° NNW visible
26 Nov 4.8 17:50:51 14° NNE 17:50:51 14° NNE 17:52:23 10° NNE visible
26 Nov 4.8 19:31:03 22° N 19:31:03 22° N 19:32:49 10° N visible
